Regional Weather Roundup
Issued by NWS Little Rock, AR

Home | Current Version | Previous Version | Graphics & Text | Print | Product List | Glossary On
Versions: 1 2 3 4 5 6 7 8 9 10 11 12 13 14 15 16 17 18 19 20 21 22 23 24 25 26 27 28 29 30 31 32 33 34 35 36 37 38 39 40 41 42 43 44 45 46 47 48 49 50
000
ASUS44 KLZK 041005
RWRLZK

WEATHER ROUNDUP FOR ARKANSAS
NATIONAL WEATHER SERVICE LITTLE ROCK AR
500 AM CDT FRI SEP 04 2015

NOTE: "FAIR" INDICATES FEW OR NO CLOUDS BELOW 12,000 FEET WITH NO
SIGNIFICANT WEATHER AND/OR OBSTRUCTIONS TO VISIBILITY.

ARZ001-003-010-029-041100-
NORTHWEST ARKANSAS

CITY           SKY/WX    TMP DP  RH WIND       PRES   REMARKS
FAYETTEVILLE   PTCLDY    65  65 100 CALM      30.00R FOG
FORT SMITH     PTCLDY    73  68  84 NE3       29.95R
HARRISON       CLEAR     68  67  96 SE5       30.01S
BENTONVILLE    CLEAR     70  64  83 SE3       30.00R
ROGERS         PTCLDY    71  68  90 SE6       30.01R
SILOAM SPGS    PTCLDY    70  61  73 E3        29.98R
HIGHFILL       CLEAR     70  67  90 CALM      29.99R
$$

ARZ004-005-016-041100-
NORTH CENTRAL ARKANSAS

CITY           SKY/WX    TMP DP  RH WIND       PRES   REMARKS
BATESVILLE     CLEAR     70  66  88 CALM      29.98S
FLIPPIN        CLEAR     68  63  83 CALM      29.97S
MTN HOME       CLEAR     69  67  93 CALM      29.99S
$$

ARZ040-041-041100-
WEST CENTRAL ARKANSAS

CITY           SKY/WX    TMP DP  RH WIND       PRES   REMARKS
MENA           PTCLDY    68  66  94 CALM      29.99R
MOUNT IDA      CLEAR     69  66  90 CALM      29.95S FOG
$$

ARZ009-017-025-026-028-041100-
NORTHEAST ARKANSAS

CITY           SKY/WX    TMP DP  RH WIND       PRES   REMARKS
JONESBORO      CLEAR     69  69 100 CALM      29.97R
NEWPORT        CLEAR     73  71  93 CALM      29.98S
WALNUT RIDGE   CLEAR     70  66  88 N3        29.97S
BLYTHEVILLE    CLEAR     71  70  96 N5        29.97S
$$

ARZ022-023-033-042-044-041100-
CENTRAL ARKANSAS

CITY           SKY/WX    TMP DP  RH WIND       PRES   REMARKS
LITTLE ROCK    CLEAR     74  69  85 E3        29.96R
N LITTLE ROCK    N/A     74  70  85 E2        29.96R
JACKSONVILLE   CLEAR     69  67  93 CALM      29.95S
SEARCY         CLEAR     69  68  96 CALM      29.98R FOG
HOT SPRINGS    CLEAR     73  70  90 CALM      29.97R
RUSSELLVILLE   CLEAR     70  69  97 CALM      29.95S
$$

ARZ036-041100-
EAST ARKANSAS

CITY           SKY/WX    TMP DP  RH WIND       PRES   REMARKS
WEST MEMPHIS   CLEAR     71  71 100 CALM      29.95S FOG
$$

ARZ050-053-066-070-073-041100-
SOUTHWEST ARKANSAS

CITY           SKY/WX    TMP DP  RH WIND       PRES   REMARKS
ARKADELPHIA    FAIR      70  70 100 CALM      29.95R FOG
CAMDEN         CLEAR     68  66  94 CALM      29.94R FOG
TEXARKANA      CLEAR     73  68  84 CALM      29.94R
EL DORADO      PTCLDY    70  67  90 CALM      29.94R
DE QUEEN       CLEAR     69  69 100 CALM      29.93R FOG
$$

ARZ056-057-069-041100-
SOUTHEAST ARKANSAS

CITY           SKY/WX    TMP DP  RH WIND       PRES   REMARKS
PINE BLUFF     CLEAR     72  69  90 CALM      29.95R
STUTTGART      CLEAR     72  64  78 NE3       29.96R
MONTICELLO     CLEAR     71  71 100 CALM      29.94S

$$





USA.gov is the U.S. government's official web portal to all federal, state and local government web resources and services.